KLEX Airport Diagram

We have created a template for each of the higher traffic airports in the vZID airspace. They include KCMH, KCRW, KCVG, KDAY, KIND, KLEX and KSDF. You wil find usefull information including the airport diagram, weather, and specific airport procedures.

KLEX Weather

[Source: ADDS]
METAR
KLEX 190654Z 00000KT 10SM CLR 02/M01 A3036 RMK AO2 SLP284 T00221006 =
KLEX 190528Z 1906/2006 VRB03KT P6SM FEW250 FM191500 22010KT P6SM BKN100 FM200000 24011KT 6SM -RA BR OVC050 FM200400 25012KT 5SM -RA BR OVC015
TAF
KLEX 190528Z 1906/2006 VRB03KT P6SM FEW250 FM191500 22010KT P6SM BKN100 FM200000 24011KT 6SM -RA BR OVC050 FM200400 25012KT 5SM -RA BR OVC015 =

KLEX Operations

Calm wind runway at KLEX is Runway 22, up to and including 10kts.

Default scenery shows Runway 8/26, which crosses Runway 22. When taxiing to Runway 22, clearance to cross Runway 26 not required.

Updated scenery available at www.flightsim.com.

 

JSN Epic template designed by JoomlaShine.com